COSMOS 1943

Satellite information

Favourite Embed

Satellite Type and Status

PAYLOADIN ORBIT

Key statistics

Satellite COSMOS 1943 at a glance.

Uptime

13567

Days in orbit

Revolutions

≈ 14.2

Per day

Orbit

LEO

Low Earth Orbit

Inclination

71.0

Latest

Satellite identification and parameters

Extended collection of information and parameters for COSMOS 1943.

Object identification

Identified? True

Debris? False

Object name: COSMOS 1943

International designator: 1988-039A

Object number (NORAD): 19119

Object ID (CCSDS): 19119

Country: COMMONWEALTH OF INDEPENDENT STATES (CIS)

Current information (Y/N): Y

RCS size: LARGE

Orbital parameters

Period: 101.719 minutes

Inclination: 71.0032 deg

SMA: 7218.181 km

Apoapsis: 849.806 km

Periapsis: 830.285 km

RAAN: 45.0308 deg

Eccentricy: 0.0013522

Argument of periapsis: 264.5577 deg

Mean anomaly: 163.7266 deg

Mean motion: 14.15667043 rev/day

Mean motion (dot): -0.00000104 rev/day2

B* drag term: -0.000028749 1/REarth

Two-line elements (TLE)

Creation date: July 5, 2025, 10:36 p.m.

Reference frame: TEME

Reference center: EARTH

Epoch: July 5, 2025, 5:58 p.m. UTC

TLE line 0: 0 COSMOS 1943

TLE line 1: 1 19119U 88039A 25186.74927684 -.00000104 00000-0 -28749-4 0 9999

TLE line 2: 2 19119 71.0032 45.0308 0013522 264.5577 163.7266 14.15667043918135

Live tracking on map

Real-time ground track for satellite COSMOS 1943.

In-orbit conjunctions

A list of the most updated potential collisions computed for object COSMOS 1943.

Target Orbit TCA Probability of collision Miss distance Type
COSMOS 2237 LEO 2025-02-23 05:27:55 0.0001124009 562.0 (m) PAYLOAD
FENGYUN 1C DEB SSO 2024-07-07 19:03:36 0.0001512603 607.0 (m) DEBRIS

Associated space launch

Second generation ELING satellite

COSMOS 1943 was lifted into orbit during the mission ‘Zenit-2 | Tselina-2 5’, on board a Zenit-2 space rocket.

The launch took place on May 15, 1988, 9:20 a.m. from 45/1.

For more information about the launch, click the button.

Launch to space Zenit-2 | Tselina-2 5
Zenit-2 | Tselina-2 5

Agency: N/A

Status: Launch Successful

Launch date: May 15, 1988, 9:20 a.m. UTC

Rocket: Zenit-2

Launch pad: 45/1

Location: Baikonur Cosmodrome, Republic of Kazakhstan

...

Latest news about this satellite

There are no fresh news available about this satellite. Check back as we update our databases every day.


Newsletter sign-up

Weekly statistics, charts and insights to help you stay on top of the space industry.